CW5752 Weather Reports


time (UTC)temp
C
wind
direction
speed
KPH
gust
KPH
rain 1hr
cm
rain 24hr
cm
rain mn
cm
humidity
%
barometer
mb
20210122063026 -1 340 0.0 4.8 0.00 0.00 0.00 89 1014.8
20210122062035 0 339 0.0 8.0 0.00 0.00 0.00 89 1014.4
20210122061029 0 0.0 0.0 0.00 0.00 0.00 91 1014.5
20210122060023 0 0.0 0.0 0.00 0.00 0.00 90 1014.5
20210122055021 0 0.0 0.0 0.00 0.00 0.00 91 1014.3
20210122054030 0 0.0 0.0 0.00 0.00 0.00 90 1014.2
20210122053030 0 0.0 0.0 0.00 0.00 0.00 90 1014.1
20210122052025 0 0.0 0.0 0.00 0.00 0.00 90 1014.1
20210122051029 0 0.0 0.0 0.00 0.00 0.00 90 1014.1
20210122050032 0 0.0 0.0 0.00 0.00 0.00 89 1014.0
20210122045024 0 0.0 0.0 0.00 0.00 0.00 91 1013.9
20210122044036 0 0.0 0.0 0.00 0.00 0.00 90 1014.0
20210122043023 0 0.0 0.0 0.00 0.00 0.00 90 1014.1
20210122042034 0 0.0 0.0 0.00 0.00 0.00 90 1013.9
20210122041024 0 0.0 0.0 0.00 0.00 0.00 90 1013.9
20210122040030 0 0.0 0.0 0.00 0.00 0.00 90 1013.8
20210122035027 0 0.0 0.0 0.00 0.00 0.00 90 1013.8
20210122034026 0 0.0 0.0 0.00 0.00 0.00 90 1013.8
20210122033022 0 0.0 0.0 0.00 0.00 0.00 89 1013.5
20210122032032 0 0.0 0.0 0.00 0.00 0.00 89 1013.6
20210122031036 0 0.0 0.0 0.00 0.00 0.00 89 1013.7
20210122030023 0 0.0 0.0 0.00 0.00 0.00 88 1013.6
20210122025021 1 0.0 0.0 0.00 0.00 0.00 88 1013.6
20210122024026 1 0.0 0.0 0.00 0.00 0.00 88 1013.4
20210122023026 1 0.0 0.0 0.00 0.00 0.00 87 1013.6
20210122022027 1 0.0 0.0 0.00 0.00 0.00 86 1013.6
20210122021048 1 0.0 0.0 0.00 0.00 0.00 86 1013.6
20210122020036 1 0.0 0.0 0.00 0.00 0.00 85 1013.4
20210122015022 2 0.0 0.0 0.00 0.00 0.00 84 1013.4
20210122014024 2 0.0 0.0 0.00 0.00 0.00 84 1013.3
20210122013026 2 0.0 0.0 0.00 0.00 0.00 83 1013.3
20210122012040 2 0.0 0.0 0.00 0.00 0.00 81 1013.4
20210122011029 3 0.0 0.0 0.00 0.00 0.00 80 1013.1
20210122010029 3 0.0 0.0 0.00 0.00 0.00 79 1013.1
20210122005023 3 0.0 0.0 0.00 0.00 0.00 77 1013.2
20210122004029 4 0.0 0.0 0.00 0.00 0.00 76 1013.2
20210122003032 4 0.0 0.0 0.00 0.00 0.00 76 1013.4
20210122002025 4 0.0 0.0 0.00 0.00 0.00 77 1013.3
20210122001021 4 0.0 0.0 0.00 0.00 0.00 77 1013.2
20210122000046 5 0.0 0.0 0.00 0.00 0.00 75 1013.2
20210121235040 5 0.0 0.0 0.00 0.00 0.00 76 1013.2
20210121234030 6 0.0 0.0 0.00 0.00 0.00 71 1013.2
20210121233035 6 0.0 0.0 0.00 0.00 0.00 66 1013.3
20210121232021 7 0.0 0.0 0.00 0.00 0.00 64 1013.2
20210121231022 7 0.0 0.0 0.00 0.00 0.00 62 1013.2
20210121230024 8 0.0 1.6 0.00 0.00 0.00 61 1013.2
20210121225031 8 0.0 4.8 0.00 0.00 0.00 62 1013.1
20210121224021 8 234 1.6 8.0 0.00 0.00 0.00 61 1013.2
20210121223022 8 234 1.6 6.4 0.00 0.00 0.00 60 1013.4
20210121222029 9 234 3.2 8.0 0.00 0.00 0.00 59 1013.3
20210121221026 9 234 1.6 8.0 0.00 0.00 0.00 62 1013.3
20210121220031 10 233 4.8 9.7 0.00 0.00 0.00 60 1013.1
20210121215025 10 236 3.2 8.0 0.00 0.00 0.00 60 1013.1
20210121214023 10 236 4.8 8.0 0.00 0.00 0.00 60 1013.0
20210121213023 10 236 0.0 8.0 0.00 0.00 0.00 62 1013.1
20210121212023 10 235 4.8 11.3 0.00 0.00 0.00 61 1013.1
20210121211030 10 235 3.2 12.9 0.00 0.00 0.00 59 1013.0
20210121210033 11 239 4.8 14.5 0.00 0.00 0.00 57 1013.0
20210121205022 10 261 3.2 9.7 0.00 0.00 0.00 59 1012.9
20210121204028 10 225 4.8 12.9 0.00 0.00 0.00 58 1013.0
20210121203028 10 225 3.2 11.3 0.00 0.00 0.00 59 1012.9
20210121202026 10 231 3.2 11.3 0.00 0.00 0.00 57 1013.0
20210121201024 10 246 3.2 9.7 0.00 0.00 0.00 58 1013.0
20210121200026 10 251 3.2 11.3 0.00 0.00 0.00 60 1013.0
20210121195022 10 258 3.2 9.7 0.00 0.00 0.00 62 1013.1
20210121194024 10 269 4.8 14.5 0.00 0.00 0.00 61 1013.2
20210121193038 10 256 3.2 14.5 0.00 0.00 0.00 63 1013.2
20210121192029 10 253 3.2 12.9 0.00 0.00 0.00 64 1013.3
20210121191023 9 256 4.8 14.5 0.00 0.00 0.00 65 1013.4
20210121190026 8 237 4.8 11.3 0.00 0.00 0.00 67 1013.3
20210121185024 8 256 3.2 11.3 0.00 0.00 0.00 70 1013.1
20210121184022 8 260 3.2 11.3 0.00 0.00 0.00 72 1013.4
20210121183038 8 260 4.8 11.3 0.00 0.00 0.00 72 1013.6
20210121182029 7 247 3.2 9.7 0.00 0.00 0.00 73 1013.7
20210121181022 7 251 4.8 11.3 0.00 0.00 0.00 74 1013.7
20210121180025 7 272 4.8 11.3 0.00 0.00 0.00 76 1013.8
20210121175024 7 275 3.2 9.7 0.00 0.00 0.00 76 1013.9
20210121174025 7 302 4.8 11.3 0.00 0.00 0.00 77 1014.0
20210121173033 6 275 4.8 12.9 0.00 0.00 0.00 77 1014.3
20210121172029 6 282 8.0 12.9 0.00 0.00 0.00 78 1014.6
20210121171023 6 287 8.0 14.5 0.00 0.00 0.00 79 1014.7
20210121170027 6 289 8.0 14.5 0.00 0.00 0.00 80 1014.8
20210121165033 6 291 8.0 17.7 0.00 0.00 0.00 80 1014.8
20210121164022 6 287 9.7 16.1 0.00 0.00 0.00 82 1015.1
20210121163026 6 286 11.3 17.7 0.00 0.00 0.00 83 1015.3
20210121162023 5 282 14.5 19.3 0.00 0.00 0.00 85 1015.3
20210121161029 5 287 9.7 16.1 0.00 0.00 0.00 87 1015.1
20210121160029 5 272 8.0 12.9 0.00 0.00 0.00 90 1015.1
20210121155025 5 273 8.0 12.9 0.00 0.00 0.00 91 1015.1
20210121154021 4 267 6.4 11.3 0.00 0.00 0.00 92 1014.9
20210121153026 4 260 3.2 8.0 0.00 0.00 0.00 93 1014.9
20210121152020 3 214 3.2 8.0 0.00 0.00 0.00 94 1014.9
20210121151021 3 201 1.6 8.0 0.00 0.00 0.00 94 1014.9
20210121150033 3 193 3.2 6.4 0.00 0.00 0.00 95 1014.8
20210121145023 2 193 1.6 6.4 0.00 0.00 0.00 95 1014.7
20210121144032 2 0.0 0.0 0.00 0.00 0.00 95 1014.4
20210121143030 2 192 0.0 4.8 0.00 0.00 0.00 95 1014.3
20210121142020 2 192 0.0 6.4 0.00 0.00 0.00 95 1014.4
20210121141021 2 192 0.0 4.8 0.00 0.00 0.00 95 1014.2
20210121140034 2 192 0.0 4.8 0.00 0.00 0.00 95 1014.4
20210121135026 2 192 1.6 8.0 0.00 0.00 0.00 95 1014.0
20210121134024 2 192 0.0 4.8 0.00 0.00 0.00 95 1014.1
20210121133023 2 192 0.0 3.2 0.00 0.00 0.00 95 1013.9
20210121132040 1 192 0.0 3.2 0.00 0.00 0.00 95 1014.1
20210121131021 1 192 0.0 4.8 0.00 0.00 0.00 95 1014.0
20210121130024 1 192 0.0 4.8 0.00 0.00 0.00 95 1014.0
20210121125021 1 192 0.0 4.8 0.00 0.00 0.00 95 1014.0
20210121124033 1 192 0.0 3.2 0.00 0.00 0.00 94 1014.2
20210121123026 2 192 0.0 4.8 0.00 0.00 0.00 95 1014.0
20210121122032 2 192 0.0 4.8 0.00 0.00 0.00 94 1014.0
20210121121049 2 192 0.0 4.8 0.00 0.00 0.00 94 1013.9
20210121120027 2 192 1.6 8.0 0.00 0.00 0.00 94 1013.9
20210121115042 2 190 3.2 6.4 0.00 0.00 0.00 94 1013.9
20210121114023 2 194 1.6 6.4 0.00 0.00 0.00 94 1013.8
20210121113027 2 196 1.6 9.7 0.00 0.00 0.00 94 1014.0
20210121112041 2 198 4.8 11.3 0.00 0.00 0.00 94 1014.0
20210121111039 2 193 6.4 11.3 0.00 0.00 0.00 94 1013.9
20210121110037 2 195 4.8 9.7 0.00 0.00 0.00 94 1013.9
20210121105027 2 192 3.2 8.0 0.00 0.00 0.00 94 1013.7
20210121104021 2 192 1.6 8.0 0.00 0.00 0.00 94 1013.8
20210121103021 2 183 0.0 6.4 0.00 0.00 0.00 93 1013.6
20210121102024 2 183 0.0 6.4 0.00 0.00 0.00 93 1013.9
20210121101026 2 187 1.6 8.0 0.00 0.00 0.00 93 1013.8
20210121100035 3 188 3.2 9.7 0.00 0.00 0.00 93 1014.2
20210121095023 2 187 4.8 12.9 0.00 0.00 0.00 93 1014.2
20210121094019 2 200 0.0 8.0 0.00 0.00 0.00 92 1014.1
20210121093031 3 204 1.6 6.4 0.00 0.00 0.00 92 1014.1
20210121092031 3 204 0.0 6.4 0.00 0.00 0.00 92 1014.1
20210121091021 3 203 1.6 6.4 0.00 0.00 0.00 91 1014.3
20210121090026 3 200 3.2 9.7 0.00 0.00 0.00 91 1014.3
20210121085024 3 196 3.2 9.7 0.00 0.00 0.00 91 1014.4
20210121084030 3 204 3.2 8.0 0.00 0.00 0.00 90 1014.4
20210121083038 3 206 1.6 9.7 0.00 0.00 0.00 89 1014.7
20210121082034 3 191 6.4 11.3 0.00 0.00 0.00 89 1014.7
20210121081030 4 196 4.8 11.3 0.00 0.00 0.00 88 1014.5
20210121080033 4 193 6.4 12.9 0.00 0.00 0.00 88 1014.6
20210121075029 4 196 4.8 16.1 0.00 0.00 0.00 87 1014.5
20210121074029 4 196 6.4 17.7 0.00 0.00 0.00 86 1014.3
20210121073041 5 197 8.0 16.1 0.00 0.00 0.00 85 1014.6
20210121072023 5 190 6.4 19.3 0.00 0.00 0.00 84 1014.4
20210121071022 5 192 6.4 16.1 0.00 0.00 0.00 83 1014.3
20210121070041 5 194 8.0 17.7 0.00 0.00 0.00 83 1014.4
20210121065025 5 194 8.0 24.1 0.00 0.00 0.00 82 1014.4
20210121064025 5 193 8.0 16.1 0.00 0.00 0.00 82 1014.5